This is the latest recevied weather packets stored in our database for station/object AG1T-20. If no packets are shown the sender has not sent any weather packets the latest 10 day(s).
| Time | Temp. | Humidity | Pressure | Rain* | Wind** | Luminosity | Snow |
|---|---|---|---|---|---|---|---|
| 1788059405 | 17.22° C | 69% | 1017.2 hPa | 0 mm | - | 0 W/m² | - |
| 1788058805 | 17.22° C | 73% | 1017.2 hPa | 0 mm | - | 0 W/m² | - |
| 1788058205 | 17.78° C | 70% | 1017.5 hPa | 0 mm | - | 0 W/m² | - |
| 1788057605 | 17.78° C | 70% | 1017.5 hPa | 0 mm | - | 0 W/m² | - |
| 1788057005 | 18.33° C | 66% | 1017.5 hPa | 0 mm | - | 0 W/m² | - |
| 1788056405 | 19.44° C | 62% | 1017.5 hPa | 0 mm | - | 0 W/m² | - |
| 1788055804 | 19.44° C | 60% | 1017.5 hPa | 0 mm | - | 0 W/m² | - |
| 1788055205 | 20.56° C | 58% | 1017.5 hPa | 0 mm | - | 15 W/m² | - |
| 1788054605 | 20.56° C | 58% | 1017.5 hPa | 0 mm | - | 13 W/m² | - |
| 1788054005 | 20° C | 59% | 1017.5 hPa | 0 mm | - | 14 W/m² | - |
| 1788053406 | 21.11° C | 55% | 1017.5 hPa | 0 mm | - | 21 W/m² | - |
| 1788052805 | 21.11° C | 55% | 1017.5 hPa | 0 mm | - | 29 W/m² | - |
| 1788052205 | 21.11° C | 54% | 1017.5 hPa | 0 mm | - | 36 W/m² | - |
| 1788051604 | 21.11° C | 52% | 1017.5 hPa | 0 mm | - | 46 W/m² | - |
| 1788051004 | 21.11° C | 53% | 1018.1 hPa | 0 mm | - | 64 W/m² | - |
| 1788050405 | 21.11° C | 52% | 1018.1 hPa | 0 mm | - | 83 W/m² | - |
| 1788049805 | 21.67° C | 54% | 1018.1 hPa | 0 mm | - | 97 W/m² | - |
| 1788049205 | 22.78° C | 53% | 1018.1 hPa | 0 mm | - | 96 W/m² | - |
| 1788048605 | 22.78° C | 51% | 1018.1 hPa | 0 mm | - | 168 W/m² | - |
| 1788048005 | 22.22° C | 53% | 1018.1 hPa | 0 mm | - | 165 W/m² | - |
| 1788047405 | 22.22° C | 52% | 1018.6 hPa | 0 mm | - | 119 W/m² | - |
| 1788046805 | 22.78° C | 50% | 1018.6 hPa | 0 mm | - | 157 W/m² | - |
| 1788046206 | 22.78° C | 51% | 1018.6 hPa | 0 mm | - | 150 W/m² | - |
| 1788045605 | 22.78° C | 50% | 1018.6 hPa | 0 mm | - | 176 W/m² | - |
| 1788045004 | 22.78° C | 49% | 1018.6 hPa | 0 mm | - | 200 W/m² | - |
* Rain latest hour (hover to see other rain measurements)
** Current wind speed in m/s (hover to see current wind gust speed)